Theta_e
304 304 304 303 302 303 299 295 286 296 302 286 285 286 288 292 293 295 290 294 291 289 289 288 288 288 291 295 293 290 292 287 283 286 289 292 293 291 291 286 283 285 283 286
305 304 304 303 302 303 296 288 288 297 299 283 284 288 289 292 291 291 291 290 292 293 289 285 290 290 295 296 294 292 290 286 281 282 287 288 289 290 293 291 288 285 284 288
304 303 303 302 304 302 296 289 284 288 291 287 286 285 286 287 294 290 291 291 293 291 289 290 288 288 290 295 295 295 294 287 286 281 285 288 285 288 291 291 285 286 286 290
304 304 303 303 304 301 296 289 284 286 283 285 287 288 287 287 286 291 292 289 291 291 287 288 287 288 288 293 294 293 293 286 287 287 288 289 288 287 288 288 290 286 289 289
303 304 302 303 303 301 291 286 285 287 286 287 288 286 285 287 288 289 289 289 291 292 288 290 286 289 290 289 291 292 291 287 287 283 286 288 286 288 289 289 290 290 290 290
303 303 303 302 302 297 290 292 292 289 285 285 285 286 286 289 291 291 293 292 291 289 292 295 294 294 293 292 290 290 289 287 285 283 285 286 283 286 288 289 291 291 287 292
302 302 302 302 301 296 292 291 290 286 282 286 287 288 289 288 291 289 290 293 291 291 296 296 294 291 291 292 291 293 288 287 287 280 282 277 288 293 292 290 291 293 293 294
301 301 302 302 300 297 293 292 290 286 281 284 285 287 289 291 292 288 290 289 291 296 294 288 286 285 285 282 286 289 292 289 283 282 282 286 288 287 288 287 288 293 292 294
299 300 301 301 300 298 293 291 291 289 284 282 286 286 288 288 285 287 286 291 293 294 289 286 283 281 282 281 283 286 289 292 287 279 280 277 287 290 292 293 284 295 294 293
298 300 301 301 300 298 294 291 292 290 284 286 286 284 286 288 289 286 286 287 289 290 288 285 285 283 284 280 279 281 284 285 283 283 283 286 289 289 294 284 287 292 293 295
298 299 300 301 300 298 295 291 292 290 286 286 287 287 286 286 289 287 286 289 288 287 286 286 286 284 282 283 285 284 284 283 283 284 282 280 289 288 288 293 292 292 291 291
299 299 299 300 299 298 295 291 292 292 286 284 288 289 289 288 287 288 287 288 287 292 287 286 286 282 281 283 281 286 284 289 286 287 287 290 290 292 290 290 292 292 293 291
298 298 299 299 299 298 294 289 289 290 285 286 286 284 288 289 288 291 287 286 290 290 292 289 285 284 284 282 283 285 286 288 288 288 288 288 288 288 288 289 289 289 290 290
298 298 298 299 298 297 294 288 289 287 284 281 282 289 286 288 289 292 292 290 290 290 290 286 285 284 284 283 286 287 288 288 285 285 285 286 287 289 288 288 288 287 287 287
297 298 298 298 297 296 292 291 291 290 286 280 282 285 286 288 291 290 290 289 287 286 285 285 284 285 284 281 283 284 287 287 287 287 289 289 287 288 289 288 287 287 286 285
297 297 297 296 293 289 289 285 290 291 287 283 278 282 283 285 287 287 286 287 286 286 285 283 284 285 285 284 284 283 288 289 291 289 290 288 287 288 287 286 285 285 285 285
296 296 296 295 294 290 284 282 287 291 287 281 277 278 283 284 285 285 285 286 284 285 284 283 283 283 284 281 281 282 287 290 290 290 289 286 288 285 286 284 282 281 279 279
295 295 294 293 293 289 283 287 290 287 281 279 273 275 280 284 281 281 283 283 283 281 282 283 282 282 282 279 279 280 280 284 284 282 285 289 284 283 281 282 282 281 279 278
291 291 288 285 280 278 280 289 287 284 282 274 272 273 274 282 280 281 282 281 278 281 280 280 281 278 274 271 274 273 272 274 277 280 280 281 280 278 278 279 278 278 276 275
288 282 276 274 278 285 283 276 275 273 270 273 270 267 274 279 277 277 279 277 275 275 276 279 277 273 270 268 267 267 268 269 271 279 277 276 275 275 273 271 271 272 272 270
275 273 274 278 280 276 269 267 268 266 268 268 269 270 274 278 276 274 275 274 272 273 274 275 273 273 269 267 264 264 265 266 266 269 269 269 272 273 270 267 265 265 265 264
274 275 272 271 268 267 266 261 263 265 264 264 268 271 275 275 277 276 273 272 271 270 270 273 271 269 261 262 261 260 261 261 261 263 263 264 263 265 264 263 262 261 261 260
271 267 264 267 263 262 260 257 262 263 261 262 264 270 274 276 275 271 272 270 269 269 270 270 269 261 258 257 258 259 258 259 259 259 260 261 260 259 259 259 257 258 258 256
263 261 259 259 258 258 259 259 260 262 262 261 262 266 272 273 272 270 269 266 268 266 266 268 262 256 254 255 255 256 255 255 256 255 257 257 257 257 255 254 254 255 255 255
260 260 256 257 257 256 257 256 257 260 259 261 265 267 271 273 272 268 265 265 264 266 267 262 257 254 253 253 253 253 253 253 253 253 253 254 254 254 254 253 252 253 254 255
256 254 256 254 256 256 255 254 256 259 259 260 262 266 269 269 269 266 264 264 264 266 257 254 254 252 251 250 251 251 251 251 252 252 252 253 252 251 252 252 252 251 252 252
253 251 243 249 251 254 253 251 256 259 258 260 261 265 265 267 264 263 263 265 260 254 252 252 251 251 250 249 249 249 249 250 251 251 252 252 251 251 253 254 253 251 252 250
Wind_Speed
20 18 18 14 11 8 4 2 3 1 4 2 1 2 10 12 22 15 6 10 10 25 28 17 15 26 9 18 19 14 5 7 8 22 3 6 17 13 16 7 7 5 2 8
21 19 16 13 12 10 3 3 1 3 0 4 2 2 4 12 26 18 13 11 5 19 21 11 13 13 13 25 26 23 12 6 8 7 5 3 18 12 18 6 1 8 6 10
20 18 15 12 11 9 3 2 3 3 2 3 2 4 4 12 9 5 7 13 19 22 17 6 14 13 8 20 19 10 9 4 9 13 11 13 15 24 20 18 7 14 16 25
19 17 15 12 11 10 2 1 1 1 5 5 5 4 5 14 10 2 9 7 19 17 10 11 10 9 6 11 13 7 7 8 7 3 6 11 15 19 22 23 28 17 27 26
17 16 14 11 9 9 3 4 4 1 2 7 8 4 6 15 5 7 13 15 24 19 16 20 14 15 11 14 9 17 4 3 6 1 5 5 7 17 24 29 29 24 29 25
17 16 14 11 10 4 2 1 2 0 1 3 8 7 5 12 6 2 5 21 21 11 9 13 16 9 11 13 17 17 11 7 6 11 4 5 4 26 24 24 29 31 26 33
15 15 11 8 6 2 2 1 2 1 2 3 5 6 11 16 10 3 4 14 13 5 19 19 13 15 8 15 11 14 17 12 3 4 5 12 12 15 18 22 18 23 24 21
11 13 11 8 7 3 3 1 2 2 3 2 5 4 9 8 4 2 2 4 4 16 9 7 8 5 5 3 2 8 8 10 6 7 10 12 13 3 10 12 19 20 24 20
9 8 10 11 11 8 4 3 1 1 4 3 3 3 4 5 5 2 3 4 1 2 5 4 7 7 6 6 2 2 4 13 8 6 15 20 6 14 12 8 26 11 13 16
8 7 10 8 8 5 4 3 2 2 4 3 3 1 2 2 6 4 4 4 1 3 4 5 5 5 3 9 13 8 7 7 18 9 11 6 5 6 17 15 6 5 5 15
11 7 10 11 10 6 4 2 3 1 4 4 7 5 1 1 2 7 5 6 3 2 6 5 6 5 8 5 9 11 11 11 10 6 13 21 8 8 18 7 0 3 1 2
12 11 9 10 8 8 4 3 2 3 7 3 3 4 7 5 4 2 1 1 6 5 5 4 5 4 6 8 7 3 10 9 8 13 9 1 9 3 4 2 2 3 3 2
12 11 12 9 9 9 7 3 4 3 4 3 3 4 6 6 5 7 3 1 2 2 2 4 3 5 4 7 6 5 5 3 5 5 7 5 7 3 2 2 2 2 4 3
13 11 11 11 11 11 9 5 4 2 3 4 2 5 4 9 8 2 3 4 4 3 2 3 3 4 2 3 3 2 3 10 6 1 2 7 1 4 7 7 7 8 6 3
14 13 13 15 20 21 12 7 6 4 2 3 2 2 7 10 3 8 9 6 5 2 3 3 3 4 4 1 2 3 5 5 10 7 11 2 6 10 9 9 8 8 10 7
16 16 15 14 7 3 3 4 3 8 3 4 2 2 5 7 7 10 11 5 4 3 3 2 1 2 1 5 4 2 2 2 1 5 5 9 12 8 7 12 11 9 10 7
17 17 16 14 14 6 5 3 4 13 2 4 3 2 3 4 3 3 4 5 3 3 2 2 2 2 2 2 3 4 2 4 10 11 13 10 6 8 9 12 13 11 11 8
20 20 20 18 17 10 5 5 14 6 5 4 4 1 1 5 2 2 4 2 2 5 2 1 2 2 1 3 4 7 8 4 8 6 6 8 11 10 8 8 7 10 9 6
14 12 9 6 8 4 3 19 9 2 4 4 3 1 1 5 3 2 2 2 3 2 2 2 2 2 3 4 6 8 11 7 7 5 8 8 11 9 7 5 7 9 7 6
10 9 6 4 3 13 8 7 6 8 7 5 3 1 1 3 3 3 1 2 2 1 2 2 2 3 6 5 6 7 10 10 10 2 6 5 7 7 7 9 7 7 6 5
6 4 2 2 11 4 6 4 5 4 4 5 2 1 1 2 2 2 3 1 1 2 1 0 1 3 4 5 8 9 10 11 11 10 9 10 8 6 7 7 7 7 5 5
3 4 2 3 7 5 8 3 4 6 2 5 3 3 3 2 2 2 1 2 1 2 2 1 2 3 5 5 7 8 9 9 10 11 11 10 9 7 7 6 6 5 5 5
4 7 7 6 5 10 5 3 3 2 6 6 6 2 3 1 2 3 1 3 1 1 1 2 1 4 4 5 5 6 9 9 9 10 8 8 8 8 7 6 5 4 5 5
7 6 7 5 4 3 1 0 1 2 4 6 4 4 2 1 2 1 3 1 1 2 1 3 2 2 2 4 5 4 6 8 7 7 6 7 7 7 7 7 6 5 5 5
5 5 4 3 1 1 1 2 2 2 4 4 2 4 2 0 2 2 3 2 1 3 2 2 2 2 3 3 4 5 6 7 6 5 5 6 5 3 3 5 5 5 4 4
6 8 3 1 1 2 2 2 2 2 6 3 2 3 1 2 1 2 2 5 4 1 1 1 0 0 1 1 3 4 4 4 4 4 4 4 5 5 4 4 4 5 4 5
6 3 1 1 1 1 2 1 3 5 3 1 2 2 2 1 2 0 1 1 2 1 0 1 1 1 2 3 3 4 5 5 4 3 4 3 4 2 1 3 5 5 4 3
Wind_Direction
172 168 170 169 163 155 130 128 187 316 195 83 187 230 141 135 154 158 115 147 143 171 162 165 170 188 144 161 160 169 167 109 147 192 89 236 206 197 185 197 182 235 38 264
170 164 164 162 166 175 143 104 126 345 46 190 194 274 153 151 159 162 157 151 158 164 166 137 190 175 189 171 172 175 165 127 113 147 222 190 210 198 204 200 72 202 203 253
163 155 155 162 168 159 86 127 134 54 74 138 140 135 170 152 165 116 102 133 126 141 162 107 175 156 182 189 183 114 126 147 181 186 195 157 199 202 201 204 210 216 223 244
153 154 152 160 161 142 106 356 146 11 157 190 156 165 170 162 162 67 139 135 153 152 151 168 171 149 123 171 169 144 158 193 200 206 148 176 196 198 193 202 225 215 240 247
153 151 142 152 155 131 91 150 150 167 97 159 166 147 170 180 151 162 186 162 163 161 156 189 160 162 169 166 179 184 208 164 146 116 145 171 184 196 201 210 221 229 245 257
148 142 146 151 159 99 112 139 60 239 20 168 151 182 162 211 149 331 143 150 158 167 159 155 145 150 144 148 167 178 180 155 127 217 109 109 287 215 200 211 218 219 234 240
124 125 129 140 152 111 114 151 117 116 148 194 166 141 177 208 242 172 155 168 147 135 112 93 70 54 73 149 172 183 190 184 91 111 131 221 261 190 206 212 221 228 248 255
122 115 114 115 115 107 96 105 95 131 118 74 86 138 167 179 149 48 81 32 8 146 86 93 84 38 75 339 342 208 209 164 155 171 212 275 257 173 169 188 245 223 233 248
84 114 113 107 105 96 84 72 317 115 124 48 39 109 199 148 134 91 41 29 73 344 94 105 133 174 146 176 100 346 178 186 173 159 214 233 112 174 149 140 262 212 224 248
132 111 108 102 94 79 103 75 357 95 102 51 17 104 155 131 126 106 123 137 129 314 106 112 146 170 138 163 161 165 152 165 201 200 226 261 234 175 155 193 285 199 206 246
133 117 107 99 92 74 59 71 0 68 89 51 18 2 49 50 163 146 170 108 300 29 101 156 170 160 192 151 150 173 166 166 196 204 229 248 159 164 184 220 124 143 149 275
139 113 98 90 80 72 78 79 358 2 68 78 7 30 19 14 351 72 289 105 152 158 133 187 142 145 159 146 183 189 192 199 172 196 209 108 187 124 62 59 145 150 140 199
118 109 112 89 73 70 87 89 4 40 99 75 27 352 340 359 347 303 121 340 105 134 13 149 135 141 142 165 203 121 222 183 206 149 182 182 163 106 107 105 119 116 123 142
111 101 94 89 81 74 76 68 355 41 81 89 30 312 11 325 327 3 51 112 87 71 36 92 117 123 217 176 117 185 166 145 168 196 89 90 131 147 136 112 109 102 67 45
115 106 101 100 100 93 87 81 47 41 68 128 73 309 350 347 358 53 61 69 73 46 75 68 148 114 132 38 73 209 203 172 192 210 165 144 147 148 141 130 126 123 114 81
117 105 108 115 98 89 62 44 22 12 20 99 103 314 343 350 1 39 45 42 62 72 89 109 113 79 186 144 196 48 251 227 13 167 116 97 113 112 115 119 121 113 101 93
109 101 94 93 96 74 72 83 323 333 23 80 97 9 14 323 339 21 25 35 44 49 96 77 63 73 37 118 136 133 220 111 97 100 110 97 140 130 118 111 109 95 87 80
105 101 95 86 87 79 32 4 356 349 87 58 108 325 301 2 44 53 0 44 30 28 55 55 46 101 3 84 46 49 6 50 60 25 28 105 111 96 89 105 117 99 93 84
93 94 78 60 38 37 307 319 330 12 76 103 60 94 130 343 33 27 48 7 71 345 60 52 339 3 55 26 346 33 12 11 355 33 74 87 98 97 86 98 62 87 81 57
63 42 39 29 328 309 324 6 19 17 351 31 77 267 34 348 15 50 0 26 53 70 31 336 48 88 95 63 48 20 9 12 348 163 91 64 67 77 73 71 58 70 78 75
40 51 74 265 328 35 29 45 54 334 43 7 357 269 70 7 58 85 357 93 18 120 112 274 148 170 113 41 48 35 17 19 31 56 60 52 60 98 106 81 60 60 58 48
140 119 86 23 29 37 69 9 333 35 22 326 323 352 352 352 348 118 6 102 92 182 341 149 190 103 55 21 25 30 31 31 39 33 51 51 54 46 87 85 74 60 58 31
40 43 48 27 324 43 61 1 357 18 346 359 343 354 354 4 62 67 90 81 111 310 15 230 16 96 46 7 356 27 25 36 47 43 43 51 59 47 48 76 49 43 57 31
62 53 29 52 358 53 121 246 289 342 314 324 309 283 329 326 46 171 96 61 63 96 223 238 105 85 10 11 9 25 15 23 34 36 34 45 42 50 44 40 28 16 38 10
68 53 60 59 343 251 328 308 293 336 302 297 287 247 255 339 115 54 109 65 238 218 235 57 85 44 5 28 15 18 16 12 17 8 16 27 21 31 49 26 17 19 4 7
61 42 84 52 65 357 10 359 305 330 322 280 251 289 29 52 88 90 186 128 215 216 36 39 162 132 44 14 4 9 360 349 348 353 2 13 16 3 352 334 19 5 354 347
51 28 47 43 103 157 287 284 307 317 302 54 306 43 14 292 62 30 292 205 23 26 8 277 332 70 30 7 352 356 351 339 331 339 7 358 336 311 335 7 355 338 328 309